Location: El Chorro
(10.0985°N, 67.3542°W)
Time: 18:28:15
(UTC+00:00)

Tiangong - Pass Details

Date: 15 November 2025
Orbit: 384 x 397 km, 41.5° (Epoch: 06 December)

Event Time Altitude Azimuth Distance (km) Brightness Sun altitude
Rises 22:47:22 0° 339° (NNW) 2,257 1.8 -11.0°
Reaches altitude 10° 22:50:19 10° 9° (N) 1,400 0.4 -11.7°
Enters shadow 22:51:26 13° 30° (NNE) 1,251 0.0 -12.0°
